User: anonymous   Login
Location: Kott?ru
(16.6209°N, 80.6208°E)
Time: 10:43:12
(UTC+00:00)
Language:

Cosmos 44 Rocket - Orbit

View from above orbital plane
View from above orbital plane
View from above satellite
View from above satellite

Ground track
Ground track

The orbit data is extracted from the following two-line orbital elements,

1 00877U 64053B   20336.92019652 -.00000031  00000-0  18780-4 0  9991
2 00877  65.0770 199.5870 0075304 322.5908  36.9962 14.59409294985932
Epoch (UTC): 01 December 2020 22:05:04
Eccentricity: 0.0075304
inclination: 65.0770°
perigee height: 642 km
apogee height: 748 km
right ascension of ascending node: 199.5870°
argument of perigee: 322.5908°
revolutions per day: 14.59409294
mean anomaly at epoch: 36.9962°
orbit number at epoch: 98593

The dashed part of the orbit path shows where the satellite is in the earth's shadow,  

DLR